Location: Newark
(52.4787°S, 179.0532°W)
Time: 02:01:44
(UTC+00:00)

DUCHIFAT 1 - Visible Passes

Search period start: 09 December 2019 00:00
Search period end: 19 December 2019 00:00
Orbit: 587 x 604 km, 97.9° (Epoch: 08 December)

Date Brightness Start Highest point End Pass type
(mag) Time Alt. Az. Time Alt. Az. Time Alt. Az.
09 Dec ? 10:32:09 10° E 10:35:02 18° ESE 10:37:56 10° SSE visible
09 Dec ? 12:07:48 25° N 12:10:11 69° WNW 12:14:28 10° SSW visible
10 Dec ? 10:41:27 10° ENE 10:44:39 21° ESE 10:47:53 10° S visible
10 Dec ? 12:17:36 24° N 12:19:55 56° W 12:24:08 10° SSW visible
11 Dec ? 10:50:48 10° ENE 10:54:16 25° ESE 10:57:47 10° S visible
11 Dec ? 12:27:23 23° NNW 12:29:41 45° W 12:33:47 10° SSW visible
12 Dec ? 11:00:32 12° ENE 11:03:54 30° ESE 11:07:38 10° S visible
12 Dec ? 12:37:11 21° NNW 12:39:26 37° W 12:43:25 10° SSW visible
13 Dec ? 11:10:20 14° NE 11:13:33 36° ESE 11:17:28 10° S visible
13 Dec ? 12:46:59 19° NW 12:49:13 30° W 12:53:00 10° SSW visible
14 Dec ? 11:20:07 16° NE 11:23:12 43° ESE 11:27:16 10° S visible
14 Dec ? 12:56:47 17° NW 12:59:00 25° W 13:02:33 10° SW visible
15 Dec ? 11:29:55 18° NE 11:32:52 53° ESE 11:37:03 10° S visible
15 Dec ? 13:06:34 14° NW 13:08:48 21° W 13:12:02 10° SW visible
16 Dec ? 10:06:25 10° ESE 10:07:46 11° SE 10:09:06 10° SSE visible
16 Dec ? 11:39:43 20° NNE 11:42:33 65° ESE 11:46:49 10° S visible
16 Dec ? 13:16:22 12° NW 13:18:37 17° W 13:21:27 10° SW visible
17 Dec ? 10:15:17 10° E 10:17:20 13° SE 10:19:24 10° SSE visible
17 Dec ? 11:49:31 22° NNE 11:52:15 80° ESE 11:56:33 10° SSW visible
17 Dec ? 13:26:11 10° WNW 13:28:27 14° W 13:30:44 10° SW visible
18 Dec ? 10:24:22 10° E 10:26:55 16° SE 10:29:29 10° SSE visible
18 Dec ? 11:59:20 23° NNE 12:01:58 84° WNW 12:06:16 10° SSW visible
18 Dec ? 13:36:53 10° WNW 13:38:17 11° W 13:39:42 10° WSW visible
